Time,TemperatureF,DewpointF,PressureIn,WindDirection,WindDirectionDegrees,WindSpeedMPH,WindSpeedGustMPH,Humidity,HourlyPrecipIn,Conditions,Clouds,dailyrainin,SoftwareType,DateUTC
2013-03-05 00:01:00,29.0,19.0,30.10,NW,306,1.0,3.0,66,0.00,,,0.00,,2013-03-05 08:01:00,
2013-03-05 00:11:00,29.0,19.0,30.10,NW,306,1.0,3.0,66,0.00,,,0.00,,2013-03-05 08:11:00,
2013-03-05 00:21:00,30.0,20.0,30.10,WNW,300,1.0,4.0,65,0.00,,,0.00,,2013-03-05 08:21:00,
2013-03-05 00:31:00,30.0,20.0,30.10,WNW,300,1.0,4.0,65,0.00,,,0.00,,2013-03-05 08:31:00,
2013-03-05 00:41:00,30.0,20.0,30.10,WNW,300,1.0,4.0,65,0.00,,,0.00,,2013-03-05 08:41:00,
2013-03-05 00:52:00,29.0,19.0,30.10,WNW,296,1.0,3.0,67,0.00,,,0.00,,2013-03-05 08:52:00,
2013-03-05 01:01:00,29.0,19.0,30.10,NW,313,1.0,3.0,67,0.00,,,0.00,,2013-03-05 09:01:00,
2013-03-05 01:11:00,29.0,19.0,30.10,NW,313,1.0,3.0,67,0.00,,,0.00,,2013-03-05 09:11:00,
2013-03-05 01:21:00,29.0,20.0,30.09,NW,309,1.0,3.0,68,0.00,,,0.00,,2013-03-05 09:21:00,
2013-03-05 01:31:00,29.0,20.0,30.09,West,281,1.0,3.0,68,0.00,,,0.00,,2013-03-05 09:31:00,
2013-03-05 01:42:00,29.0,20.0,30.09,West,281,1.0,3.0,68,0.00,,,0.00,,2013-03-05 09:42:00,
2013-03-05 01:52:00,29.0,19.0,30.09,West,280,2.0,4.0,66,0.00,,,0.00,,2013-03-05 09:52:00,
2013-03-05 02:01:00,29.0,19.0,30.09,NW,304,1.0,4.0,66,0.00,,,0.00,,2013-03-05 10:01:00,
2013-03-05 02:11:00,29.0,19.0,30.09,NW,304,1.0,4.0,66,0.00,,,0.00,,2013-03-05 10:11:00,
2013-03-05 02:21:00,29.0,19.0,30.08,NW,307,2.0,4.0,66,0.00,,,0.00,,2013-03-05 10:21:00,
2013-03-05 02:32:00,29.0,19.0,30.08,WNW,298,1.0,4.0,67,0.00,,,0.00,,2013-03-05 10:32:00,
2013-03-05 02:41:00,29.0,19.0,30.08,WNW,298,1.0,4.0,67,0.00,,,0.00,,2013-03-05 10:41:00,
2013-03-05 02:52:00,29.0,19.0,30.08,NW,314,1.0,4.0,67,0.00,,,0.00,,2013-03-05 10:52:00,
2013-03-05 03:01:00,29.0,19.0,30.07,NW,310,2.0,3.0,67,0.00,,,0.00,,2013-03-05 11:01:00,
2013-03-05 03:11:00,29.0,19.0,30.07,NW,310,2.0,3.0,67,0.00,,,0.00,,2013-03-05 11:11:00,
2013-03-05 03:21:00,29.0,19.0,30.06,WNW,298,1.0,4.0,67,0.00,,,0.00,,2013-03-05 11:21:00,
2013-03-05 03:32:00,29.0,20.0,30.06,NW,308,2.0,4.0,68,0.00,,,0.00,,2013-03-05 11:32:00,
2013-03-05 03:41:00,29.0,20.0,30.06,NW,308,2.0,4.0,68,0.00,,,0.00,,2013-03-05 11:41:00,
2013-03-05 03:52:00,29.0,20.0,30.06,WNW,296,1.0,4.0,68,0.00,,,0.00,,2013-03-05 11:52:00,
2013-03-05 04:02:00,29.0,20.0,30.06,NW,313,1.0,3.0,69,0.00,,,0.00,,2013-03-05 12:02:00,
2013-03-05 04:11:00,29.0,20.0,30.06,NW,313,1.0,3.0,69,0.00,,,0.00,,2013-03-05 12:11:00,
2013-03-05 04:22:00,29.0,20.0,30.06,West,279,1.0,5.0,69,0.00,,,0.00,,2013-03-05 12:22:00,
2013-03-05 04:32:00,29.0,20.0,30.06,WNW,290,2.0,3.0,68,0.00,,,0.00,,2013-03-05 12:32:00,
2013-03-05 04:42:00,29.0,20.0,30.06,WNW,290,2.0,3.0,68,0.00,,,0.00,,2013-03-05 12:42:00,
2013-03-05 04:52:00,30.0,21.0,30.06,NW,313,1.0,5.0,68,0.00,,,0.00,,2013-03-05 12:52:00,
2013-03-05 05:01:00,30.0,21.0,30.06,NW,309,1.0,3.0,69,0.00,,,0.00,,2013-03-05 13:01:00,
2013-03-05 05:11:00,30.0,21.0,30.06,NW,309,1.0,3.0,69,0.00,,,0.00,,2013-03-05 13:11:00,
2013-03-05 05:21:00,29.0,20.0,30.06,WNW,296,2.0,4.0,69,0.00,,,0.00,,2013-03-05 13:21:00,
2013-03-05 05:31:00,29.0,21.0,30.05,WNW,299,2.0,4.0,71,0.00,,,0.00,,2013-03-05 13:31:00,
2013-03-05 05:42:00,29.0,21.0,30.05,WNW,299,2.0,4.0,71,0.00,,,0.00,,2013-03-05 13:42:00,
2013-03-05 05:52:00,29.0,20.0,30.05,WNW,302,2.0,6.0,70,0.00,,,0.00,,2013-03-05 13:52:00,
2013-03-05 06:02:00,28.0,20.0,30.05,WNW,298,2.0,4.0,71,0.00,,,0.00,,2013-03-05 14:02:00,
2013-03-05 06:11:00,28.0,20.0,30.05,WNW,298,2.0,4.0,71,0.00,,,0.00,,2013-03-05 14:11:00,
2013-03-05 06:21:00,28.0,20.0,30.05,NW,305,1.0,4.0,71,0.00,,,0.00,,2013-03-05 14:21:00,
2013-03-05 06:31:00,28.0,20.0,30.05,NW,309,1.0,4.0,72,0.00,,,0.00,,2013-03-05 14:31:00,
2013-03-05 06:41:00,28.0,20.0,30.05,NW,309,1.0,4.0,72,0.00,,,0.00,,2013-03-05 14:41:00,
2013-03-05 06:52:00,28.0,20.0,30.05,NW,317,2.0,4.0,72,0.00,,,0.00,,2013-03-05 14:52:00,
2013-03-05 07:01:00,29.0,21.0,30.05,WNW,300,1.0,6.0,71,0.00,,,0.00,,2013-03-05 15:01:00,
2013-03-05 07:11:00,29.0,21.0,30.05,WNW,300,1.0,6.0,71,0.00,,,0.00,,2013-03-05 15:11:00,
2013-03-05 07:21:00,29.0,20.0,30.05,NW,308,1.0,5.0,70,0.00,,,0.00,,2013-03-05 15:21:00,
2013-03-05 07:31:00,30.0,22.0,30.04,NW,326,1.0,4.0,71,0.00,,,0.00,,2013-03-05 15:31:00,
2013-03-05 07:42:00,30.0,22.0,30.04,NW,326,1.0,4.0,71,0.00,,,0.00,,2013-03-05 15:42:00,
2013-03-05 07:52:00,30.0,21.0,30.04,NW,313,1.0,4.0,69,0.00,,,0.00,,2013-03-05 15:52:00,
2013-03-05 08:01:00,31.0,22.0,30.03,West,273,1.0,4.0,68,0.00,,,0.00,,2013-03-05 16:01:00,
2013-03-05 08:11:00,31.0,22.0,30.03,West,273,1.0,4.0,68,0.00,,,0.00,,2013-03-05 16:11:00,
2013-03-05 08:21:00,31.0,22.0,30.04,NW,312,1.0,3.0,68,0.00,,,0.00,,2013-03-05 16:21:00,
2013-03-05 08:31:00,32.0,23.0,30.03,NW,317,1.0,4.0,68,0.00,,,0.00,,2013-03-05 16:31:00,
2013-03-05 08:41:00,32.0,23.0,30.03,NW,317,1.0,4.0,68,0.00,,,0.00,,2013-03-05 16:41:00,
2013-03-05 08:52:00,32.0,22.0,30.03,NW,317,0.0,3.0,67,0.00,,,0.00,,2013-03-05 16:52:00,
2013-03-05 09:01:00,32.0,22.0,30.03,NNE,26,1.0,5.0,66,0.00,,,0.00,,2013-03-05 17:01:00,
2013-03-05 09:11:00,32.0,22.0,30.03,NNE,26,1.0,5.0,66,0.00,,,0.00,,2013-03-05 17:11:00,
2013-03-05 09:21:00,33.0,23.0,30.03,North,2,2.0,5.0,67,0.00,,,0.00,,2013-03-05 17:21:00,
2013-03-05 09:32:00,33.0,23.0,30.02,NNE,22,2.0,6.0,66,0.00,,,0.00,,2013-03-05 17:32:00,
2013-03-05 09:41:00,33.0,23.0,30.02,NNE,22,2.0,6.0,66,0.00,,,0.00,,2013-03-05 17:41:00,
2013-03-05 09:52:00,33.0,23.0,30.02,NNW,341,1.0,3.0,65,0.00,,,0.00,,2013-03-05 17:52:00,
2013-03-05 10:01:00,33.0,23.0,30.02,NNW,341,1.0,3.0,65,0.00,,,0.00,,2013-03-05 18:01:00,
2013-03-05 10:11:00,33.0,23.0,30.02,NNW,341,1.0,3.0,65,0.00,,,0.00,,2013-03-05 18:11:00,
2013-03-05 10:21:00,34.0,23.0,30.01,NNW,339,2.0,5.0,64,0.00,,,0.00,,2013-03-05 18:21:00,
2013-03-05 10:31:00,34.0,23.0,30.01,NNE,14,1.0,5.0,64,0.00,,,0.00,,2013-03-05 18:31:00,
2013-03-05 10:41:00,34.0,23.0,30.01,NNE,14,1.0,5.0,64,0.00,,,0.00,,2013-03-05 18:41:00,
2013-03-05 10:52:00,35.0,24.0,30.01,NNW,348,0.0,4.0,64,0.00,,,0.00,,2013-03-05 18:52:00,
2013-03-05 11:01:00,35.0,24.0,30.00,NW,324,2.0,5.0,63,0.00,,,0.00,,2013-03-05 19:01:00,
2013-03-05 11:11:00,35.0,24.0,30.00,NW,324,2.0,5.0,63,0.00,,,0.00,,2013-03-05 19:11:00,
2013-03-05 11:21:00,35.0,24.0,29.99,NNE,12,2.0,4.0,63,0.00,,,0.00,,2013-03-05 19:21:00,
2013-03-05 11:31:00,35.0,24.0,29.99,NNW,348,2.0,4.0,63,0.00,,,0.00,,2013-03-05 19:31:00,
2013-03-05 11:41:00,35.0,24.0,29.99,NNW,348,2.0,4.0,63,0.00,,,0.00,,2013-03-05 19:41:00,
2013-03-05 11:51:00,35.0,23.0,29.99,North,355,2.0,5.0,62,0.00,,,0.00,,2013-03-05 19:51:00,
2013-03-05 12:01:00,35.0,23.0,29.99,NNW,332,1.0,4.0,62,0.00,,,0.00,,2013-03-05 20:01:00,
2013-03-05 12:11:00,36.0,23.0,29.98,NNW,338,1.0,5.0,60,0.00,,,0.00,,2013-03-05 20:11:00,
2013-03-05 12:21:00,36.0,23.0,29.98,NNW,338,1.0,5.0,60,0.00,,,0.00,,2013-03-05 20:21:00,
2013-03-05 12:32:00,36.0,24.0,29.98,NNE,26,1.0,3.0,61,0.00,,,0.00,,2013-03-05 20:32:00,
2013-03-05 12:41:00,36.0,24.0,29.98,NNE,26,1.0,3.0,61,0.00,,,0.00,,2013-03-05 20:41:00,
2013-03-05 12:52:00,36.0,24.0,29.97,WNW,301,1.0,6.0,62,0.00,,,0.00,,2013-03-05 20:52:00,
2013-03-05 13:01:00,37.0,24.0,29.97,NNE,18,2.0,4.0,60,0.00,,,0.00,,2013-03-05 21:01:00,
2013-03-05 13:11:00,37.0,24.0,29.97,NNE,18,2.0,4.0,60,0.00,,,0.00,,2013-03-05 21:11:00,
2013-03-05 13:21:00,36.0,24.0,29.96,North,354,1.0,8.0,61,0.00,,,0.00,,2013-03-05 21:21:00,
2013-03-05 13:31:00,36.0,27.0,29.96,NW,320,2.0,7.0,70,0.00,,,0.00,,2013-03-05 21:31:00,
2013-03-05 13:41:00,36.0,27.0,29.96,NW,320,2.0,7.0,70,0.00,,,0.00,,2013-03-05 21:41:00,
2013-03-05 13:52:00,36.0,28.0,29.95,North,350,2.0,5.0,72,0.00,,,0.00,,2013-03-05 21:52:00,
2013-03-05 14:01:00,36.0,28.0,29.95,NE,39,1.0,4.0,72,0.00,,,0.00,,2013-03-05 22:01:00,
2013-03-05 14:11:00,36.0,28.0,29.95,NE,39,1.0,4.0,72,0.00,,,0.00,,2013-03-05 22:11:00,
2013-03-05 14:21:00,36.0,28.0,29.94,NW,321,1.0,5.0,71,0.00,,,0.00,,2013-03-05 22:21:00,
2013-03-05 14:32:00,37.0,28.0,29.94,NNE,14,1.0,5.0,69,0.00,,,0.00,,2013-03-05 22:32:00,
2013-03-05 14:41:00,37.0,28.0,29.94,NNE,14,1.0,5.0,69,0.00,,,0.00,,2013-03-05 22:41:00,
2013-03-05 14:52:00,37.0,27.0,29.95,NNE,14,1.0,4.0,68,0.00,,,0.00,,2013-03-05 22:52:00,
2013-03-05 15:01:00,36.0,27.0,29.95,NNW,343,2.0,5.0,70,0.00,,,0.00,,2013-03-05 23:01:00,
2013-03-05 15:11:00,36.0,27.0,29.95,NNW,343,2.0,5.0,70,0.00,,,0.00,,2013-03-05 23:11:00,
2013-03-05 15:21:00,36.0,28.0,29.95,NNW,333,1.0,4.0,71,0.00,,,0.00,,2013-03-05 23:21:00,
2013-03-05 15:32:00,36.0,28.0,29.95,NNE,23,1.0,4.0,72,0.00,,,0.00,,2013-03-05 23:32:00,
2013-03-05 15:41:00,36.0,28.0,29.95,NNE,23,1.0,4.0,72,0.00,,,0.00,,2013-03-05 23:41:00,
2013-03-05 15:52:00,36.0,29.0,29.95,NNW,343,1.0,3.0,75,0.00,,,0.00,,2013-03-05 23:52:00,
2013-03-05 16:01:00,36.0,30.0,29.93,NE,39,2.0,5.0,78,0.00,,,0.00,,2013-03-06 00:01:00,
2013-03-05 16:11:00,36.0,30.0,29.93,NE,39,2.0,5.0,78,0.00,,,0.00,,2013-03-06 00:11:00,
2013-03-05 16:21:00,34.0,29.0,29.93,NE,40,6.0,8.0,82,0.00,,,0.00,,2013-03-06 00:21:00,
2013-03-05 16:32:00,35.0,31.0,29.93,NNW,338,2.0,6.0,84,0.00,,,0.00,,2013-03-06 00:32:00,
2013-03-05 16:41:00,35.0,31.0,29.93,NNW,338,2.0,6.0,84,0.00,,,0.00,,2013-03-06 00:41:00,
2013-03-05 16:51:00,35.0,31.0,29.93,NNE,14,2.0,4.0,85,0.00,,,0.00,,2013-03-06 00:51:00,
2013-03-05 17:01:00,34.0,30.0,29.93,North,352,1.0,5.0,86,0.00,,,0.00,,2013-03-06 01:01:00,
2013-03-05 17:11:00,34.0,30.0,29.93,North,352,1.0,5.0,86,0.00,,,0.00,,2013-03-06 01:11:00,
2013-03-05 17:21:00,34.0,30.0,29.93,North,357,2.0,5.0,86,0.00,,,0.00,,2013-03-06 01:21:00,
2013-03-05 17:31:00,34.0,30.0,29.93,NW,319,2.0,7.0,85,0.00,,,0.00,,2013-03-06 01:31:00,
2013-03-05 17:41:00,34.0,30.0,29.93,NW,319,2.0,7.0,85,0.00,,,0.00,,2013-03-06 01:41:00,
2013-03-05 17:51:00,34.0,30.0,29.93,North,2,1.0,5.0,86,0.00,,,0.00,,2013-03-06 01:51:00,
2013-03-05 18:01:00,34.0,31.0,29.93,North,357,1.0,4.0,87,0.00,,,0.00,,2013-03-06 02:01:00,
2013-03-05 18:11:00,34.0,31.0,29.93,North,357,1.0,4.0,87,0.00,,,0.00,,2013-03-06 02:11:00,
2013-03-05 18:21:00,34.0,31.0,29.92,NNW,334,2.0,7.0,87,0.00,,,0.00,,2013-03-06 02:21:00,
2013-03-05 18:31:00,34.0,31.0,29.92,NNW,345,2.0,6.0,87,0.00,,,0.00,,2013-03-06 02:31:00,
2013-03-05 18:41:00,34.0,31.0,29.92,NNW,345,2.0,6.0,87,0.00,,,0.00,,2013-03-06 02:41:00,
2013-03-05 18:52:00,34.0,31.0,29.92,NNE,18,2.0,6.0,88,0.00,,,0.00,,2013-03-06 02:52:00,
2013-03-05 19:01:00,33.0,30.0,29.92,NNW,337,1.0,4.0,88,0.00,,,0.00,,2013-03-06 03:01:00,
2013-03-05 19:11:00,33.0,30.0,29.92,NNW,337,1.0,4.0,88,0.00,,,0.00,,2013-03-06 03:11:00,
2013-03-05 19:21:00,33.0,30.0,29.92,NNW,337,0.0,2.0,89,0.00,,,0.00,,2013-03-06 03:21:00,
2013-03-05 19:31:00,33.0,30.0,29.91,NW,320,1.0,3.0,90,0.00,,,0.00,,2013-03-06 03:31:00,
2013-03-05 19:41:00,33.0,30.0,29.91,NW,320,1.0,3.0,90,0.00,,,0.00,,2013-03-06 03:41:00,
2013-03-05 19:52:00,33.0,30.0,29.91,WNW,293,0.0,5.0,90,0.00,,,0.00,,2013-03-06 03:52:00,
2013-03-05 20:01:00,33.0,30.0,29.91,WNW,293,0.0,5.0,90,0.00,,,0.00,,2013-03-06 04:01:00,
2013-03-05 20:11:00,33.0,30.0,29.91,WNW,293,0.0,5.0,90,0.00,,,0.00,,2013-03-06 04:11:00,
2013-03-05 20:21:00,34.0,31.0,29.91,NNE,26,2.0,4.0,90,0.00,,,0.00,,2013-03-06 04:21:00,
2013-03-05 20:32:00,34.0,31.0,29.89,NW,321,1.0,5.0,90,0.00,,,0.00,,2013-03-06 04:32:00,
2013-03-05 20:41:00,34.0,31.0,29.89,NW,321,1.0,5.0,90,0.00,,,0.00,,2013-03-06 04:41:00,
2013-03-05 20:51:00,33.0,30.0,29.89,NNW,337,0.0,6.0,90,0.00,,,0.00,,2013-03-06 04:51:00,
2013-03-05 21:01:00,33.0,30.0,29.90,NNW,347,0.0,3.0,90,0.00,,,0.00,,2013-03-06 05:01:00,
2013-03-05 21:11:00,33.0,30.0,29.90,NNW,347,0.0,3.0,90,0.00,,,0.00,,2013-03-06 05:11:00,
2013-03-05 21:22:00,33.0,30.0,29.89,NW,319,0.0,5.0,90,0.00,,,0.00,,2013-03-06 05:22:00,
2013-03-05 21:32:00,33.0,30.0,29.88,WNW,302,1.0,5.0,90,0.00,,,0.00,,2013-03-06 05:32:00,
2013-03-05 21:42:00,33.0,30.0,29.88,WNW,302,1.0,5.0,90,0.00,,,0.00,,2013-03-06 05:42:00,
2013-03-05 21:52:00,33.0,30.0,29.88,NNW,327,1.0,3.0,90,0.00,,,0.00,,2013-03-06 05:52:00,
2013-03-05 22:01:00,33.0,30.0,29.87,NW,321,1.0,6.0,90,0.00,,,0.00,,2013-03-06 06:01:00,
2013-03-05 22:11:00,33.0,30.0,29.87,NW,321,1.0,6.0,90,0.00,,,0.00,,2013-03-06 06:11:00,
2013-03-05 22:22:00,33.0,30.0,29.88,NW,317,1.0,6.0,90,0.00,,,0.00,,2013-03-06 06:22:00,
2013-03-05 22:31:00,33.0,30.0,29.87,NW,320,1.0,7.0,90,0.00,,,0.00,,2013-03-06 06:31:00,
2013-03-05 22:41:00,33.0,30.0,29.87,NW,320,1.0,7.0,90,0.00,,,0.00,,2013-03-06 06:41:00,
2013-03-05 22:52:00,33.0,30.0,29.86,NNW,334,1.0,4.0,90,0.00,,,0.00,,2013-03-06 06:52:00,
2013-03-05 23:01:00,33.0,30.0,29.86,NW,324,1.0,4.0,90,0.00,,,0.00,,2013-03-06 07:01:00,
2013-03-05 23:11:00,33.0,30.0,29.86,NW,324,1.0,4.0,90,0.00,,,0.00,,2013-03-06 07:11:00,
2013-03-05 23:22:00,33.0,30.0,29.85,NW,317,1.0,5.0,89,0.00,,,0.00,,2013-03-06 07:22:00,
2013-03-05 23:31:00,33.0,30.0,29.85,WNW,298,0.0,4.0,90,0.00,,,0.00,,2013-03-06 07:31:00,
2013-03-05 23:42:00,33.0,30.0,29.85,WNW,298,0.0,4.0,90,0.00,,,0.00,,2013-03-06 07:42:00,
2013-03-05 23:52:00,33.0,30.0,29.85,NNW,333,1.0,4.0,90,0.00,,,0.00,,2013-03-06 07:52:00,